Probability
80 73 61 51 44 37 31 29 27 22 22 24 28 35 38 34 31 35 46 58 63 65 65 56 41 31 23 15 11 11 10 12 13 10 5 1 0 0 0 0 0 0 0
80 74 62 50 39 30 23 19 15 14 15 16 17 23 31 35 38 40 44 50 52 54 56 51 40 32 25 17 10 7 6 7 8 8 6 2 0 0 0 0 0 0 0
76 73 65 51 37 26 17 9 6 7 8 7 5 9 18 28 35 37 36 37 35 36 39 39 35 30 24 17 11 7 5 4 4 5 4 2 0 0 0 0 0 0 0
66 69 67 56 41 29 18 8 5 5 4 2 1 2 7 15 20 22 24 23 19 19 22 23 22 21 17 14 11 10 7 4 2 2 2 1 0 0 0 0 0 0 0
62 67 69 62 48 35 22 9 4 4 2 0 0 0 3 7 8 9 11 11 9 8 9 9 8 8 9 9 10 11 9 5 3 3 2 1 0 0 0 0 0 0 0
63 67 71 67 57 44 28 11 4 4 2 0 0 0 2 3 4 4 4 4 3 4 6 5 3 2 3 4 7 7 7 5 5 5 4 2 0 0 0 0 0 0 0
48 55 64 69 64 51 34 17 8 5 2 0 0 0 1 2 4 4 3 2 1 2 5 6 4 2 1 2 2 2 2 2 3 5 5 3 1 0 0 0 0 0 0
24 32 47 61 66 57 40 24 15 9 2 0 0 0 0 1 3 4 3 1 0 1 2 4 4 4 3 1 0 0 0 0 1 2 3 3 1 0 0 0 0 0 0
8 13 26 42 57 62 51 35 26 17 7 2 1 0 0 0 2 3 3 1 0 0 0 1 3 4 3 1 0 0 0 0 0 0 1 1 0 0 0 0 0 0 0
2 4 10 20 37 53 56 49 40 31 19 7 2 1 0 0 1 2 1 0 0 0 0 0 2 3 3 1 0 0 0 0 0 0 0 0 0 0 0 0 0 0 0
0 1 2 6 15 28 42 48 49 45 34 18 9 5 3 1 1 0 0 0 0 0 0 1 3 5 5 3 1 0 0 0 0 0 0 0 0 0 0 0 0 0 0
0 0 0 1 3 9 18 28 39 44 42 31 22 15 10 8 6 4 2 1 1 2 3 4 6 7 8 6 3 1 0 0 0 0 0 0 0 0 0 0 0 0 0
0 0 0 0 1 2 4 9 18 27 35 38 35 28 22 19 19 16 10 6 4 4 6 7 8 10 13 12 5 1 0 0 0 0 0 0 0 0 0 0 0 0 0
0 0 0 0 0 1 1 2 5 10 20 30 36 38 34 32 33 33 27 19 10 6 6 9 16 23 25 17 6 1 0 0 0 0 0 0 0 0 0 0 0 0 0
0 0 0 0 0 0 1 1 2 3 7 16 29 40 40 37 37 41 41 35 23 11 7 14 28 39 34 17 4 1 0 0 0 0 0 0 0 0 0 0 0 0 0
0 0 0 0 0 1 3 3 2 2 3 8 21 32 37 35 33 36 41 42 37 26 18 23 37 46 37 17 5 2 1 0 0 0 0 0 0 0 0 0 0 0 0
0 0 0 0 0 0 2 3 1 1 1 5 13 21 28 30 27 27 31 37 40 37 33 32 38 45 40 24 10 4 1 0 0 0 0 0 0 0 0 0 0 0 0
0 0 0 0 0 0 0 1 0 0 1 3 7 13 20 22 23 21 21 26 32 38 42 39 37 41 40 29 16 6 1 0 0 0 0 0 0 0 0 0 0 0 0
0 0 0 0 0 0 0 0 0 0 0 2 5 10 13 15 18 16 14 16 23 33 42 42 38 38 34 26 16 6 1 0 0 0 0 0 0 0 0 0 0 0 0
0 0 0 0 0 0 0 0 0 0 1 3 7 9 8 7 10 10 9 10 15 24 35 39 40 40 34 23 13 4 0 0 0 0 0 0 0 0 0 0 0 0 0
0 0 0 0 0 0 0 0 0 0 1 3 7 8 4 1 2 3 5 6 7 12 20 28 34 38 35 26 15 4 0 0 0 0 0 0 0 0 0 0 0 0 0
0 0 0 0 0 0 0 0 0 0 0 2 4 4 1 0 0 0 1 2 2 3 7 14 22 26 29 28 17 4 0 0 0 0 0 0 0 0 0 0 0 0 0
0 0 0 0 0 0 0 0 0 0 0 0 1 1 1 0 0 0 0 0 0 0 1 6 10 13 18 20 12 3 0 0 0 0 0 0 0 0 0 0 0 0 0
0 0 0 0 0 0 0 0 0 0 0 0 0 0 1 0 0 0 0 0 0 0 0 2 3 5 7 8 5 1 0 0 0 0 0 0 0 0 0 0 0 0 0
0 0 0 0 0 0 0 0 0 0 0 0 0 0 0 0 0 0 0 0 0 0 0 0 0 1 1 2 2 1 0 0 0 0 0 0 0 0 0 0 0 0 0
0 0 0 0 0 0 0 0 0 0 0 0 0 0 0 0 0 0 0 0 0 0 0 0 0 0 0 0 1 1 1 0 0 0 0 0 0 0 0 0 0 0 0
Wind_Speed
4 4 4 3 4 4 4 6 6 7 8 8 7 8 8 9 8 5 3 14 17 16 17 17 17 17 16 15 15 15 15 16 16 16 16 15 14 13 13 13 12 11 11
4 4 4 4 4 4 4 4 6 6 6 6 8 8 8 7 6 6 4 7 14 16 17 18 18 18 18 17 17 17 17 16 16 16 17 17 16 15 14 14 14 13 12
3 3 3 4 3 3 4 4 6 6 7 7 8 9 6 6 5 7 6 5 7 14 18 19 19 19 19 19 19 18 18 18 17 17 17 17 17 16 15 15 15 14 14
2 2 3 3 3 3 3 4 5 6 7 6 6 6 6 6 8 7 6 6 6 7 13 20 19 19 20 21 21 20 19 19 19 18 18 17 17 17 16 16 16 15 15
2 2 3 3 3 3 4 5 4 5 5 6 6 7 7 7 7 8 8 9 9 9 8 13 20 20 21 23 22 21 20 20 20 19 19 19 18 18 17 17 16 16 16
3 3 3 4 4 4 4 4 5 4 3 4 7 7 6 7 7 7 9 9 9 11 10 10 10 14 21 21 21 21 21 22 21 21 20 20 20 19 18 18 18 17 17
5 4 4 3 4 5 6 6 4 4 4 5 5 6 6 8 9 8 8 7 9 10 10 10 9 8 9 18 19 20 21 22 21 21 21 20 20 20 19 19 19 18 18
4 5 4 4 4 4 6 6 5 3 4 5 4 4 4 4 6 9 7 7 7 6 8 11 11 10 8 8 12 19 20 20 21 20 20 20 20 20 19 19 19 19 18
4 4 4 4 5 4 4 6 6 6 5 4 4 3 3 2 3 3 7 6 6 4 4 6 9 9 9 7 9 17 21 19 19 19 19 19 19 18 19 19 19 19 19
5 4 3 4 4 5 4 5 5 5 5 5 4 3 3 1 1 3 1 3 5 4 4 3 5 7 7 6 7 13 19 18 17 17 17 18 18 18 18 19 19 19 19
7 6 4 2 3 4 4 5 5 4 4 5 4 3 3 3 4 2 2 1 2 4 4 3 2 3 5 5 5 10 17 17 16 15 14 15 16 17 18 18 19 20 20
5 5 4 3 2 2 3 4 5 5 5 5 5 4 3 3 3 3 4 3 3 4 5 4 3 2 3 3 4 9 14 14 13 12 11 12 13 15 17 18 19 20 20
6 6 6 2 2 2 3 4 4 5 5 5 5 5 4 4 2 2 3 3 3 3 4 3 4 3 3 5 6 9 9 10 9 9 9 10 10 12 14 16 18 18 18
7 8 7 5 4 4 5 4 4 5 4 4 6 6 5 5 3 3 2 2 2 1 3 4 3 4 4 6 8 8 6 7 7 8 9 9 10 10 11 12 14 15 16
9 9 9 8 7 6 6 6 5 6 5 4 4 4 4 5 5 4 3 2 2 3 3 3 3 4 5 6 8 5 7 6 5 6 7 8 9 9 10 10 11 12 12
8 8 9 9 8 8 7 7 6 7 7 6 4 5 5 4 5 5 4 3 2 3 3 2 3 5 6 7 6 6 8 8 5 3 3 5 7 8 8 9 10 10 11
8 8 9 9 9 9 9 8 8 8 8 7 6 6 6 6 5 5 5 3 2 1 2 2 2 5 6 8 7 7 7 5 5 5 4 4 4 4 5 5 6 7 8
8 9 9 9 10 10 9 9 10 11 10 9 8 8 7 6 7 5 5 5 4 3 2 3 3 5 6 8 8 7 6 7 5 7 8 8 8 7 6 6 6 6 6
8 9 9 9 9 10 10 11 10 10 10 10 10 9 9 8 7 6 6 6 4 4 3 3 4 4 5 7 8 8 8 6 6 6 9 10 11 11 10 10 9 9 9
9 9 9 9 9 10 10 11 11 11 11 10 10 10 9 9 9 8 7 7 5 4 4 4 4 4 6 8 8 8 6 5 4 4 6 8 11 13 13 12 12 12 12
11 9 9 10 10 10 11 11 10 12 11 11 11 10 11 11 12 9 7 7 7 5 5 5 5 4 5 8 8 6 7 6 4 3 4 4 5 6 7 10 12 14 14
10 10 10 11 12 12 13 12 9 8 8 10 10 11 12 10 12 14 12 9 8 8 8 6 6 6 7 8 8 8 9 7 4 2 4 3 4 6 6 6 10 14 15
11 10 11 11 12 12 15 15 14 10 9 9 10 9 12 13 13 11 11 10 8 6 5 5 6 6 6 6 8 10 10 8 5 5 4 4 6 7 6 7 12 13 14
10 10 11 12 11 13 15 14 14 11 10 10 10 9 10 11 10 10 11 11 9 8 7 5 4 3 3 2 5 8 10 8 8 4 4 5 5 6 7 6 10 13 14
10 10 11 11 11 11 13 13 13 9 8 10 10 10 10 11 12 12 11 10 10 8 10 8 6 4 3 1 2 7 10 11 8 4 2 5 6 7 6 6 7 11 12
10 11 10 10 10 11 11 12 12 8 8 8 7 8 11 11 12 13 11 10 10 9 9 10 7 6 5 4 5 8 10 12 9 5 4 5 8 6 6 4 4 5 6
Wind_Direction
238 249 269 274 259 250 240 239 246 241 238 240 237 227 215 221 241 245 182 183 186 189 192 196 199 204 203 199 203 205 205 205 203 202 203 205 205 202 198 196 193 191 189
234 237 249 257 257 258 265 269 268 261 251 244 240 234 227 219 230 243 221 195 198 199 201 203 206 208 207 204 204 206 206 206 207 206 206 206 205 204 202 200 198 196 194
232 222 228 238 238 248 267 276 274 270 258 245 241 238 236 229 219 229 226 213 210 212 211 210 210 210 210 209 208 207 207 208 208 208 208 208 207 206 204 201 200 199 196
237 228 230 231 217 220 233 246 250 258 256 251 246 240 236 231 225 220 216 220 221 226 221 219 215 212 212 213 212 211 210 211 211 209 209 208 208 209 208 205 202 199 198
280 249 233 227 210 215 226 241 241 246 261 258 251 239 232 228 222 221 215 219 218 219 219 219 220 216 214 216 216 215 214 213 212 211 210 209 209 209 209 210 206 201 199
319 289 257 233 216 220 226 227 241 240 251 266 268 262 234 221 212 213 215 219 219 218 209 210 212 217 216 216 216 217 217 215 213 213 212 211 211 210 208 210 209 206 203
339 306 292 264 231 229 231 231 224 231 234 241 252 263 253 225 209 209 208 214 217 215 204 198 194 194 206 214 215 215 217 217 216 214 213 212 211 210 208 208 209 209 207
333 324 329 299 273 248 239 234 225 226 239 230 221 244 265 252 215 208 199 207 218 209 207 193 186 186 189 191 211 215 217 218 218 215 213 211 211 208 206 206 207 207 208
302 303 316 317 309 288 256 241 228 223 236 252 228 209 245 278 306 206 192 198 194 199 206 194 190 184 189 181 194 211 215 215 217 216 212 210 209 205 203 204 205 206 208
285 273 278 313 324 315 304 277 243 231 231 244 252 227 232 285 299 342 249 201 183 189 213 210 198 182 182 188 190 191 204 210 213 215 212 208 206 205 204 205 206 208 209
277 255 228 237 303 310 331 323 316 278 246 242 245 238 228 228 218 227 265 267 187 181 194 207 193 172 179 187 187 184 190 199 204 209 209 206 204 205 207 209 210 212 212
293 294 262 196 231 294 331 323 313 297 279 265 261 256 231 211 216 221 228 224 204 205 181 183 181 185 187 160 160 167 179 187 194 200 204 206 206 207 210 212 215 216 217
318 313 311 248 234 260 281 283 288 288 284 276 269 263 260 253 243 239 236 237 207 191 166 172 180 184 165 122 113 128 147 164 179 192 201 207 210 212 213 214 216 219 220
297 300 315 308 276 254 256 261 275 277 270 266 270 270 269 270 273 264 254 255 247 207 175 184 168 159 137 119 133 139 131 152 174 191 201 207 211 214 216 216 216 218 220
311 317 320 309 295 277 258 250 252 265 270 260 257 257 258 263 272 271 270 255 212 213 218 196 155 143 128 118 147 142 128 134 154 184 198 205 210 213 216 218 218 218 218
299 303 302 297 290 283 269 252 245 249 243 238 238 238 238 245 258 268 269 276 257 200 206 206 176 155 147 140 141 117 112 116 97 127 169 191 201 206 212 216 219 219 218
309 303 301 298 293 286 278 266 252 249 250 245 236 231 228 227 236 249 255 249 257 254 206 196 163 151 136 129 130 126 139 125 93 77 96 119 145 164 179 191 200 201 199
304 302 299 297 293 288 282 275 264 254 242 239 235 228 226 219 219 232 242 242 234 221 211 197 157 154 149 140 139 135 122 103 94 77 84 91 98 104 111 120 131 140 149
296 296 293 292 291 291 289 283 276 267 255 243 235 226 220 213 212 214 221 228 232 228 210 202 179 165 159 148 134 118 106 105 101 99 87 84 89 93 94 97 102 107 112
293 289 288 287 285 283 283 282 277 271 264 255 242 233 223 213 208 206 212 215 214 220 212 208 196 173 163 152 140 133 128 123 115 101 85 88 91 87 88 92 97 101 104
292 293 291 286 283 279 272 270 272 272 270 264 254 242 232 219 207 202 205 206 204 207 207 205 201 184 167 160 160 151 140 126 107 125 120 116 106 93 83 85 92 101 102
293 288 284 282 279 277 282 288 287 285 283 277 266 253 244 232 215 200 202 199 199 205 207 202 201 194 185 175 166 153 147 147 142 154 132 117 108 98 85 79 98 104 106
295 289 284 279 275 272 272 268 266 266 264 264 259 252 245 234 213 199 193 187 192 202 206 200 202 195 182 178 170 158 161 160 138 152 129 96 86 81 76 84 101 107 110
292 288 282 279 275 273 268 258 254 257 257 253 251 244 240 245 227 200 192 195 199 198 195 190 188 164 128 124 164 165 153 126 110 111 112 107 102 94 88 85 96 108 112
291 288 285 279 275 273 267 257 247 257 252 252 247 237 231 232 234 206 192 190 193 196 198 192 178 158 140 143 161 149 145 141 137 133 115 114 122 107 92 90 97 106 112
291 290 287 284 281 277 268 255 244 250 247 248 243 235 231 230 224 200 192 188 192 193 182 182 184 185 197 213 200 172 159 153 143 143 162 128 145 131 112 108 120 123 110